Flag for U.S.A. Weather past 2 weeks in Brownsville, Texas, U.S.A.

Now
91 °F

Sunny.


Feels Like: 100 °F
Forecast: 80 / 96 °F
Wind: 18 mph from Southeast

Location: Brownsville / South Padre Island International Airport

Current Time: Aug 22, 2014 at 6:36:53 PM

Latest Report: Aug 22, 2014 at 5:53 PM


Visibility: 10 mi

Pressure: 29.97 "Hg

Humidity: 56%

Dew point: 73 °F

Location of BrownsvilleLocation

Historic Weather in Brownsville — Graph

°F

Brownsville temperature yesterday

Maximum temperature yesterday: 96 °F (at 2:53 PM)
Minimum temperature yesterday: 79 °F (at 5:53 AM)
Average temperature yesterday: 87 °F

Past Weeks' High & Low Weather Summary

 TemperatureHumidityPressure
High99 °F (Aug 15, 2:53 PM)97% (Aug 10, 6:53 AM)30.06 "Hg (Aug 10, 6:53 AM)
Low75 °F (Aug 19, 2:53 AM)38% (Aug 15, 2:53 PM)29.81 "Hg (Aug 19, 6:53 PM)
Average86 °F74%29.95 "Hg
* Reported Aug 7 4:53 PM — Aug 22 4:53 PM, Brownsville, Weather by CustomWeather, © 2014

Note: Actual official high and low records may vary slightly from our data, if they occured in-between our weather recording intervals... More about our weather records

Advertising

Brownsville weather history for previous 24 hours

 ConditionsComfort  
Time TempWeatherWind HumidityBarometerVisibility
4:53 PM
Aug 22
93 °FSunny.16 mph49%29.97 "Hg10 mi
3:53 PM96 °FSunny.18 mph41%29.98 "Hg10 mi
2:53 PM95 °FSunny.14 mph43%29.99 "Hg10 mi
1:53 PM95 °FSunny.17 mph43%30.01 "Hg10 mi
12:53 PM96 °FSunny.20 mph38%30.02 "Hg10 mi
11:53 AM94 °FPassing clouds.15 mph46%30.03 "Hg10 mi
10:53 AM91 °FSunny.14 mph56%30.04 "Hg10 mi
9:53 AM88 °FSunny.14 mph63%30.04 "Hg10 mi
8:53 AM83 °FSunny.9 mph85%30.04 "Hg10 mi
7:53 AM77 °FClear.5 mph96%30.04 "Hg10 mi
6:53 AM76 °FClear.6 mph97%30.02 "Hg10 mi
5:53 AM78 °FClear.3 mph96%30.02 "Hg10 mi
4:53 AM78 °FClear.5 mph96%30.01 "Hg10 mi
3:53 AM79 °FClear.5 mph94%30.03 "Hg10 mi
2:53 AM80 °FClear.7 mph94%30.04 "Hg10 mi
1:53 AM81 °FClear.7 mph91%30.06 "Hg10 mi
12:53 AM81 °FPassing clouds.7 mph94%30.06 "Hg10 mi
11:53 PM
Aug 21
82 °FPassing clouds.5 mph91%30.06 "Hg10 mi
10:53 PM82 °FClear.6 mph88%30.05 "Hg10 mi
9:53 PM83 °FClear.6 mph82%30.02 "Hg10 mi
8:53 PM84 °FSunny.9 mph80%30.01 "Hg10 mi
7:53 PM86 °FScattered clouds.16 mph77%29.99 "Hg10 mi
6:53 PM89 °FPassing clouds.18 mph68%29.99 "Hg10 mi
Weather by CustomWeather, © 2014

See weather overviewHow to use our weather pages